Time,TemperatureF,DewpointF,PressureIn,WindDirection,WindDirectionDegrees,WindSpeedMPH,WindSpeedGustMPH,Humidity,HourlyPrecipIn,Conditions,Clouds,dailyrainin,SoftwareType,DateUTC
2013-07-22 00:01:00,62.0,61.0,30.08,NNE,28,0.0,0.0,97,0.00,,,-99.99,,2013-07-22 04:01:00,
2013-07-22 00:12:00,62.0,61.0,30.08,NNE,28,0.0,0.0,97,0.00,,,-99.99,,2013-07-22 04:12:00,
2013-07-22 00:22:00,62.0,61.0,30.08,NNE,28,0.0,0.0,97,0.00,,,-99.99,,2013-07-22 04:22:00,
2013-07-22 00:33:00,61.0,60.0,30.09,NNE,28,0.0,0.0,97,0.00,,,-99.99,,2013-07-22 04:33:00,
2013-07-22 00:43:00,61.0,60.0,30.09,NNE,28,0.0,0.0,97,0.00,,,-99.99,,2013-07-22 04:43:00,
2013-07-22 01:02:00,62.0,61.0,30.08,NNE,28,0.0,0.0,97,0.00,,,-99.99,,2013-07-22 05:02:00,
2013-07-22 01:11:00,61.0,60.0,30.08,NNE,28,0.0,0.0,97,0.00,,,-99.99,,2013-07-22 05:11:00,
2013-07-22 01:22:00,61.0,60.0,30.08,NNE,28,0.0,0.0,97,0.00,,,-99.99,,2013-07-22 05:22:00,
2013-07-22 01:32:00,61.0,60.0,30.07,NNE,28,0.0,0.0,97,0.00,,,-99.99,,2013-07-22 05:32:00,
2013-07-22 01:43:00,61.0,60.0,30.07,NNE,28,0.0,0.0,97,0.00,,,-99.99,,2013-07-22 05:43:00,
2013-07-22 01:52:00,61.0,60.0,30.07,NNE,28,0.0,0.0,97,0.00,,,-99.99,,2013-07-22 05:52:00,
2013-07-22 02:01:00,61.0,60.0,30.07,NNE,28,0.0,0.0,97,0.00,,,-99.99,,2013-07-22 06:01:00,
2013-07-22 02:11:00,61.0,60.0,30.07,NNE,28,0.0,0.0,97,0.00,,,-99.99,,2013-07-22 06:11:00,
2013-07-22 02:43:00,60.0,59.0,30.03,NNE,28,0.0,0.0,96,0.00,,,-99.99,,2013-07-22 06:43:00,
2013-07-22 02:52:00,60.0,59.0,30.03,NNE,28,0.0,0.0,97,0.00,,,-99.99,,2013-07-22 06:52:00,
2013-07-22 03:01:00,59.0,58.0,30.02,NNE,28,0.0,0.0,97,0.00,,,-99.99,,2013-07-22 07:01:00,
2013-07-22 03:12:00,59.0,58.0,30.02,NNE,28,0.0,0.0,97,0.00,,,-99.99,,2013-07-22 07:12:00,
2013-07-22 03:22:00,59.0,58.0,30.01,NNE,28,0.0,0.0,97,0.00,,,-99.99,,2013-07-22 07:22:00,
2013-07-22 03:33:00,59.0,58.0,30.01,NNE,28,0.0,0.0,97,0.00,,,-99.99,,2013-07-22 07:33:00,
2013-07-22 03:43:00,59.0,58.0,30.00,NNE,28,0.0,0.0,96,0.00,,,-99.99,,2013-07-22 07:43:00,
2013-07-22 03:52:00,59.0,58.0,29.99,NNE,28,0.0,0.0,96,0.00,,,-99.99,,2013-07-22 07:52:00,
2013-07-22 04:02:00,59.0,58.0,29.99,NNE,28,0.0,0.0,96,0.00,,,-99.99,,2013-07-22 08:02:00,
2013-07-22 04:11:00,59.0,58.0,29.99,NNE,28,0.0,0.0,96,0.00,,,-99.99,,2013-07-22 08:11:00,
2013-07-22 04:22:00,59.0,58.0,29.99,NNE,28,0.0,0.0,96,0.00,,,-99.99,,2013-07-22 08:22:00,
2013-07-22 04:32:00,59.0,58.0,29.99,NNE,28,0.0,0.0,96,0.00,,,-99.99,,2013-07-22 08:32:00,
2013-07-22 04:43:00,59.0,58.0,29.99,NNE,28,0.0,0.0,96,0.00,,,-99.99,,2013-07-22 08:43:00,
2013-07-22 04:52:00,59.0,58.0,29.99,NNE,28,0.0,0.0,96,0.00,,,-99.99,,2013-07-22 08:52:00,
2013-07-22 05:02:00,59.0,58.0,29.99,NNE,28,0.0,0.0,96,0.00,,,-99.99,,2013-07-22 09:02:00,
2013-07-22 05:11:00,59.0,58.0,29.99,NNE,28,0.0,0.0,96,0.00,,,-99.99,,2013-07-22 09:11:00,
2013-07-22 05:22:00,59.0,58.0,29.99,NNE,28,0.0,0.0,96,0.00,,,-99.99,,2013-07-22 09:22:00,
2013-07-22 05:33:00,59.0,58.0,30.00,NNE,28,0.0,0.0,96,0.00,,,-99.99,,2013-07-22 09:33:00,
2013-07-22 05:42:00,60.0,59.0,30.00,NNE,28,0.0,0.0,95,0.00,,,-99.99,,2013-07-22 09:42:00,
2013-07-22 05:52:00,60.0,59.0,30.00,NNE,28,0.0,0.0,95,0.00,,,-99.99,,2013-07-22 09:52:00,
2013-07-22 06:02:00,60.0,59.0,30.00,NNE,28,0.0,0.0,95,0.00,,,-99.99,,2013-07-22 10:02:00,
2013-07-22 06:11:00,60.0,58.0,30.01,NNE,28,0.0,0.0,93,0.00,,,-99.99,,2013-07-22 10:11:00,
2013-07-22 06:22:00,60.0,58.0,30.01,NNE,28,0.0,0.0,93,0.00,,,-99.99,,2013-07-22 10:22:00,
2013-07-22 06:32:00,60.0,58.0,30.01,NNE,28,0.0,0.0,93,0.00,,,-99.99,,2013-07-22 10:32:00,
2013-07-22 06:43:00,60.0,58.0,30.01,NNE,28,0.0,0.0,93,0.00,,,-99.99,,2013-07-22 10:43:00,
2013-07-22 06:52:00,60.0,58.0,30.01,NNE,28,0.0,0.0,93,0.00,,,-99.99,,2013-07-22 10:52:00,
2013-07-22 07:02:00,60.0,58.0,30.01,NNE,28,0.0,0.0,93,0.00,,,-99.99,,2013-07-22 11:02:00,
2013-07-22 07:11:00,60.0,58.0,30.02,NNE,28,0.0,0.0,93,0.00,,,-99.99,,2013-07-22 11:11:00,
2013-07-22 07:23:00,60.0,58.0,30.02,NNE,28,0.0,0.0,93,0.00,,,-99.99,,2013-07-22 11:23:00,
2013-07-22 07:32:00,60.0,58.0,30.02,NNE,28,0.0,0.0,93,0.00,,,-99.99,,2013-07-22 11:32:00,
2013-07-22 07:43:00,61.0,59.0,30.02,NNE,28,0.0,0.0,92,0.00,,,-99.99,,2013-07-22 11:43:00,
2013-07-22 07:52:00,61.0,59.0,30.02,NNE,28,0.0,0.0,92,0.00,,,-99.99,,2013-07-22 11:52:00,
2013-07-22 08:02:00,61.0,59.0,30.03,NNE,28,0.0,0.0,92,0.00,,,-99.99,,2013-07-22 12:02:00,
2013-07-22 08:12:00,62.0,59.0,30.03,NNE,28,0.0,0.0,91,0.00,,,-99.99,,2013-07-22 12:12:00,
2013-07-22 08:22:00,62.0,59.0,30.03,NNE,28,0.0,0.0,91,0.00,,,-99.99,,2013-07-22 12:22:00,
2013-07-22 08:33:00,62.0,59.0,30.04,NNE,28,0.0,0.0,91,0.00,,,-99.99,,2013-07-22 12:33:00,
2013-07-22 08:43:00,62.0,59.0,30.04,NNE,28,0.0,0.0,91,0.00,,,-99.99,,2013-07-22 12:43:00,
2013-07-22 08:53:00,63.0,60.0,30.04,NNE,28,0.0,0.0,90,0.00,,,-99.99,,2013-07-22 12:53:00,
2013-07-22 09:01:00,63.0,60.0,30.04,NNE,28,0.0,0.0,90,0.00,,,-99.99,,2013-07-22 13:01:00,
2013-07-22 09:11:00,63.0,60.0,30.04,NNE,28,0.0,0.0,90,0.00,,,-99.99,,2013-07-22 13:11:00,
2013-07-22 09:22:00,64.0,61.0,30.05,NNE,28,0.0,0.0,89,0.00,,,-99.99,,2013-07-22 13:22:00,
2013-07-22 09:43:00,65.0,61.0,30.05,NNE,28,0.0,0.0,88,0.00,,,-99.99,,2013-07-22 13:43:00,
2013-07-22 09:53:00,65.0,61.0,30.05,NNE,28,0.0,0.0,88,0.00,,,-99.99,,2013-07-22 13:53:00,
2013-07-22 10:02:00,65.0,62.0,30.05,NNE,28,0.0,0.0,89,0.00,,,-99.99,,2013-07-22 14:02:00,
2013-07-22 10:11:00,65.0,62.0,30.05,NNE,28,0.0,0.0,89,0.00,,,-99.99,,2013-07-22 14:11:00,
2013-07-22 10:22:00,65.0,62.0,30.05,NNE,28,0.0,0.0,89,0.00,,,-99.99,,2013-07-22 14:22:00,
2013-07-22 10:32:00,65.0,62.0,30.05,NNE,28,0.0,0.0,89,0.00,,,-99.99,,2013-07-22 14:32:00,
2013-07-22 10:53:00,70.0,67.0,30.05,NNE,28,0.0,0.0,90,0.00,,,-99.99,,2013-07-22 14:53:00,
2013-07-22 11:02:00,70.0,67.0,30.05,NNE,28,0.0,0.0,90,0.00,,,-99.99,,2013-07-22 15:02:00,
2013-07-22 11:11:00,71.0,68.0,30.05,NNE,28,0.0,0.0,89,0.00,,,-99.99,,2013-07-22 15:11:00,
2013-07-22 11:22:00,71.0,68.0,30.05,NNE,28,0.0,0.0,89,0.00,,,-99.99,,2013-07-22 15:22:00,
2013-07-22 11:43:00,69.0,67.0,30.06,NNE,28,0.0,0.0,92,0.00,,,-99.99,,2013-07-22 15:43:00,
2013-07-22 11:52:00,69.0,67.0,30.06,NNE,28,0.0,0.0,92,0.00,,,-99.99,,2013-07-22 15:52:00,
2013-07-22 12:01:00,67.0,66.0,30.05,NNE,28,0.0,0.0,95,0.00,,,-99.99,,2013-07-22 16:01:00,
2013-07-22 12:11:00,68.0,66.0,30.05,NNE,28,0.0,0.0,94,0.00,,,-99.99,,2013-07-22 16:11:00,
2013-07-22 12:22:00,68.0,67.0,30.05,NNE,28,0.0,0.0,96,0.00,,,-99.99,,2013-07-22 16:22:00,
2013-07-22 12:32:00,67.0,66.0,30.05,NNE,28,0.0,0.0,96,0.00,,,-99.99,,2013-07-22 16:32:00,
2013-07-22 12:43:00,69.0,68.0,30.05,NNE,28,0.0,0.0,95,0.00,,,-99.99,,2013-07-22 16:43:00,
2013-07-22 13:11:00,72.0,68.0,30.04,NNE,28,0.0,0.0,88,0.00,,,-99.99,,2013-07-22 17:11:00,
2013-07-22 13:23:00,73.0,68.0,30.04,NNE,28,0.0,0.0,83,0.00,,,-99.99,,2013-07-22 17:23:00,
2013-07-22 13:32:00,73.0,68.0,30.03,NNE,28,0.0,0.0,84,0.00,,,-99.99,,2013-07-22 17:32:00,
2013-07-22 13:43:00,74.0,67.0,30.03,NNE,28,0.0,0.0,80,0.00,,,-99.99,,2013-07-22 17:43:00,
2013-07-22 13:52:00,74.0,67.0,30.03,NNE,28,0.0,0.0,80,0.00,,,-99.99,,2013-07-22 17:52:00,
2013-07-22 14:05:00,74.0,67.0,30.03,NNE,28,0.0,0.0,80,0.00,,,-99.99,,2013-07-22 18:05:00,
2013-07-22 14:27:00,71.0,68.0,30.02,NNE,28,0.0,0.0,90,0.00,,,-99.99,,2013-07-22 18:27:00,
2013-07-22 15:05:00,71.0,68.0,30.01,NNE,28,0.0,0.0,90,0.00,,,-99.99,,2013-07-22 19:05:00,
2013-07-22 15:36:00,74.0,69.0,29.99,NNE,28,0.0,0.0,84,0.00,,,-99.99,,2013-07-22 19:36:00,
2013-07-22 16:16:00,70.0,68.0,29.98,NNE,28,0.0,0.0,92,0.00,,,-99.99,,2013-07-22 20:16:00,
2013-07-22 16:22:00,70.0,68.0,29.98,NNE,28,0.0,0.0,93,0.00,,,-99.99,,2013-07-22 20:22:00,
2013-07-22 16:32:00,70.0,68.0,29.98,NNE,28,0.0,0.0,93,0.00,,,-99.99,,2013-07-22 20:32:00,
2013-07-22 16:43:00,70.0,68.0,29.98,NNE,28,0.0,0.0,93,0.00,,,-99.99,,2013-07-22 20:43:00,
2013-07-22 17:12:00,69.0,68.0,29.98,NNE,28,0.0,0.0,96,0.01,,,-99.99,,2013-07-22 21:12:00,
2013-07-22 17:22:00,69.0,68.0,29.98,NNE,28,0.0,0.0,96,0.01,,,-99.99,,2013-07-22 21:22:00,
2013-07-22 17:32:00,69.0,68.0,29.98,NNE,28,0.0,0.0,96,0.01,,,-99.99,,2013-07-22 21:32:00,
2013-07-22 17:43:00,69.0,68.0,29.98,NNE,28,0.0,0.0,96,0.01,,,-99.99,,2013-07-22 21:43:00,
2013-07-22 18:01:00,70.0,68.0,29.96,NNE,28,0.0,0.0,93,0.00,,,-99.99,,2013-07-22 22:01:00,
2013-07-22 18:22:00,70.0,68.0,29.96,NNE,28,0.0,0.0,92,0.00,,,-99.99,,2013-07-22 22:22:00,
2013-07-22 18:32:00,70.0,67.0,29.95,NNE,28,0.0,0.0,90,0.00,,,-99.99,,2013-07-22 22:32:00,
2013-07-22 18:43:00,68.0,67.0,29.95,NNE,28,0.0,0.0,97,0.00,,,-99.99,,2013-07-22 22:43:00,
2013-07-22 19:01:00,67.0,66.0,29.95,NNE,28,0.0,0.0,97,0.00,,,-99.99,,2013-07-22 23:01:00,
2013-07-22 19:22:00,66.0,65.0,29.94,NNE,28,0.0,0.0,98,0.04,,,-99.99,,2013-07-22 23:22:00,
2013-07-22 19:32:00,66.0,65.0,29.94,NNE,28,0.0,0.0,98,0.04,,,-99.99,,2013-07-22 23:32:00,
2013-07-22 19:43:00,65.0,64.0,29.94,NNE,28,0.0,0.0,98,0.04,,,-99.99,,2013-07-22 23:43:00,
2013-07-22 19:52:00,65.0,64.0,29.94,NNE,28,0.0,0.0,98,0.04,,,-99.99,,2013-07-22 23:52:00,
2013-07-22 20:01:00,65.0,64.0,29.94,NNE,28,0.0,0.0,98,0.04,,,-99.99,,2013-07-23 00:01:00,
2013-07-22 20:12:00,65.0,64.0,29.94,NNE,28,0.0,0.0,98,0.04,,,-99.99,,2013-07-23 00:12:00,
2013-07-22 20:32:00,65.0,64.0,29.95,NNE,28,0.0,0.0,97,0.00,,,-99.99,,2013-07-23 00:32:00,
2013-07-22 20:43:00,64.0,63.0,29.96,NNE,28,0.0,0.0,97,0.00,,,-99.99,,2013-07-23 00:43:00,
2013-07-22 20:52:00,64.0,63.0,29.96,NNE,28,0.0,0.0,97,0.00,,,-99.99,,2013-07-23 00:52:00,
2013-07-22 21:01:00,64.0,63.0,29.96,NNE,28,0.0,0.0,97,0.00,,,-99.99,,2013-07-23 01:01:00,
2013-07-22 21:11:00,64.0,63.0,29.96,NNE,28,0.0,0.0,97,0.00,,,-99.99,,2013-07-23 01:11:00,
2013-07-22 21:22:00,64.0,63.0,29.96,NNE,28,0.0,0.0,97,0.00,,,-99.99,,2013-07-23 01:22:00,
2013-07-22 21:32:00,64.0,63.0,29.96,NNE,28,0.0,0.0,97,0.00,,,-99.99,,2013-07-23 01:32:00,
2013-07-22 21:43:00,64.0,63.0,29.96,NNE,28,0.0,0.0,97,0.00,,,-99.99,,2013-07-23 01:43:00,
2013-07-22 22:43:00,61.0,60.0,29.96,NNE,28,0.0,0.0,97,0.47,,,-99.99,,2013-07-23 02:43:00,
2013-07-22 23:11:00,61.0,60.0,29.96,NNE,28,0.0,0.0,97,0.52,,,-99.99,,2013-07-23 03:11:00,
2013-07-22 23:22:00,61.0,60.0,29.95,NNE,28,0.0,0.0,96,0.18,,,-99.99,,2013-07-23 03:22:00,
2013-07-22 23:33:00,61.0,60.0,29.95,NNE,28,0.0,0.0,96,0.13,,,-99.99,,2013-07-23 03:33:00,
2013-07-22 23:43:00,61.0,60.0,29.93,NNE,28,0.0,0.0,96,0.06,,,-99.99,,2013-07-23 03:43:00,
2013-07-22 23:52:00,61.0,60.0,29.93,NNE,28,0.0,0.0,96,0.06,,,-99.99,,2013-07-23 03:52:00,